Tracking 25723 objects as of 26-Jun-2022
HD Live streaming from Space Station
objects crossing your sky now

DELTA 1 DEB

Track DELTA 1 DEB now!
10-day predictions


NORAD ID: 37658
Int'l Code: 1978-026JV
Perigee: 860.5 km
Apogee: 960.2 km
Inclination: 99.4 °
Period: 103.1 minutes
Semi major axis: 7281 km
RCS: 0.007 m2 (small)
Launch date: March 5, 1978
Source: United States (US)
Launch site: AIR FORCE WESTERN TEST RANGE (AFWTR)

Note: This is SATELLITE DEBRIS
aabbcc
Your satellite tracking list
Your tracking list is empty




NASA's NSSDC Master Catalog

Two Line Element Set (TLE):
1 37658U 78026JV  22173.42865722  .00000164  00000-0  14678-3 0  9993
2 37658  99.3544  39.4900 0068448  70.6499 103.6904 13.97289268969771
Source of the keplerian elements: AFSPC